[[{"header":{"parameterUnit":"m.s-1","parameterCategory":1,"la1":30.2991,"la2":30.254,"lo1":-89.0895,"lo2":-89.0444,"dy":0.0017,"dx":0.0017,"nx":28,"ny":28,"refTime":"2023-08-26T03:00:00:Z","depth":0,"parameterNumber":2,"parameterNumberName":"U-component_of_WINDS"},"data":[0,0,0,0,0,0,0,0,0,0,0,0,0,0,0,0,0,0,0,0,0,0,0,0,0,0,0,0,0,0,0,0,0,0,0,0,0,0,0,0,0,0,0,0,0,0,0,0,0,0,0,0,0,0,0,0,0,0,0.2602,0.2603,0,0.2682,0.2683,0.2684,0.2668,0.2666,0.2665,0.2663,0.275,0.2754,0.2757,0,0,0,0,0,0,0,0,0,0,0,0,0,0.2436,0.2439,0.2602,0.2603,0.2604,0.2682,0.2683,0.2685,0.2668,0.2666,0.2665,0.2663,0.2749,0.2753,0.2758,0,0,0,0,0,0,0,0,0,0,0,0,0,0.2512,0.244,0.2601,0.2605,0.2606,0.2682,0.2683,0.2685,0.2669,0.2666,0.2664,0.2662,0.2747,0.2753,0.2758,0.2837,0,0,0.2775,0.2778,0,0,0,0,0,0,0,0,0.2507,0.2518,0.2603,0.2605,0.2606,0.2663,0.2657,0.2736,0.2669,0.2645,0.2663,0.2661,0.2723,0.273,0.2751,0.2841,0.2845,0.2776,0.2779,0.2781,0.2783,0,0,0,0,0,0,0,0.2502,0.2514,0.2634,0.2605,0.2606,0.2603,0.2612,0.2672,0.2696,0.2647,0.2646,0.2655,0.2723,0.2745,0.2753,0.2846,0.2776,0.278,0.2784,0.2786,0.3006,0.3008,0,0,0,0,0,0,0.2495,0.251,0.2631,0.2636,0.255,0.2608,0.2617,0.2647,0.2695,0.27,0.2657,0.2654,0.2737,0.2746,0.2756,0.2851,0.2781,0.2787,0.279,0.3003,0.3006,0.3009,0,0,0,0,0,0,0.2492,0.2506,0.2628,0.2573,0.2588,0.2613,0.2647,0.265,0.2672,0.2703,0.2707,0.2675,0.2736,0.2748,0.2817,0.2854,0.2789,0.2794,0.3,0.3004,0.3008,0.3044,0,0,0,0,0,0,0.2487,0.2505,0.2535,0.2573,0.2591,0.2687,0.2649,0.2653,0.2681,0.2678,0.2721,0.2726,0.2735,0.2809,0.2822,0.2861,0.2798,0.2997,0.3002,0.3006,0.3039,0.3048,0.3056,0,0,0,0,0,0.2481,0.2542,0.2536,0.2551,0.2628,0.2689,0.2699,0.2707,0.2684,0.2714,0.2734,0.2724,0.2847,0.2816,0.2831,0.2872,0.2995,0.3001,0.3006,0.3036,0.3047,0.3056,0,0,0,0,0,0,0.2509,0.2548,0.2541,0.2617,0.265,0.2686,0.2725,0.2719,0.276,0.2756,0.2765,0.2775,0.2845,0.2865,0.2829,0.2951,0.2918,0.2927,0.2935,0.2946,0.2954,0.2948,0.2803,0,0,0,0,0,0.2523,0.2569,0.26,0.2664,0.2681,0.27,0.2727,0.273,0.2765,0.2779,0.2804,0.284,0.2886,0.2917,0.2961,0.3042,0.3051,0.3077,0.3085,0.3092,0.31,0.3144,0.3156,0.3028,0.3028,0.3027,0,0,0.2555,0.2582,0.261,0.267,0.2696,0.2743,0.2712,0.2764,0.2799,0.2788,0.2854,0.2873,0.2913,0.2988,0.3023,0.3007,0.3137,0.3099,0.3104,0.3109,0.3151,0.3163,0.3174,0.3031,0.3031,0.303,0,0,0.2636,0.2661,0.2716,0.2742,0.2781,0.2794,0.2807,0.2844,0.2857,0.2923,0.2915,0.2958,0.3038,0.3067,0.3092,0.3183,0.3176,0.3197,0.3241,0.3284,0.3294,0.3303,0.3336,0.3348,0.3205,0.3205,0.3205,0,0.2671,0.2741,0.2746,0.2798,0.2825,0.2815,0.2872,0.2897,0.295,0.2969,0.295,0.305,0.3077,0.3158,0.318,0.32,0.3217,0.3193,0.3292,0.3301,0.3309,0.3341,0.3353,0.3207,0.3207,0.3207,0.3207,0,0.2782,0.283,0.2871,0.292,0.2951,0.3006,0.302,0.3051,0.3051,0.3066,0.3134,0.3164,0.3215,0.3234,0.3236,0.3316,0.3305,0.3289,0.3257,0.3324,0.3354,0.3366,0.3211,0.321,0.3209,0.3209,0,0,0.2885,0.2934,0.2949,0.2971,0.3013,0.3052,0.3105,0.3153,0.318,0.3216,0.3262,0.333,0.3315,0.3343,0.3347,0.3385,0.3455,0.3364,0.3365,0.3381,0.3546,0.3559,0.3573,0.345,0.3452,0.3454,0.3543,0,0.2971,0.3064,0.307,0.3156,0.3201,0.3191,0.3238,0.327,0.3284,0.3325,0.3342,0.339,0.3366,0.3383,0.3419,0.3439,0.3489,0.3432,0.3494,0.3496,0.3485,0.3588,0.3602,0.3685,0.3555,0.3557,0.3558,0,0.3084,0.3122,0.3211,0.3246,0.3265,0.3307,0.3352,0.3391,0.3426,0.3434,0.3465,0.3464,0.352,0.3484,0.3562,0.3523,0.3548,0.3562,0.3565,0.3572,0.3532,0.3599,0.3711,0.3724,0.3577,0.3575,0.3574,0,0.3151,0.3224,0.3287,0.3307,0.3348,0.3378,0.3397,0.343,0.3458,0.3497,0.3516,0.3561,0.3586,0.3621,0.3632,0.3605,0.371,0.3675,0.3719,0.3719,0.3743,0.3741,0.3861,0.3757,0.3757,0.3757,0.3757,0,0.3247,0.3303,0.3318,0.3357,0.3419,0.3425,0.3486,0.3504,0.3533,0.3575,0.357,0.361,0.3622,0.3664,0.3673,0.3736,0.3748,0.3756,0.3758,0.3757,0.3756,0.3775,0.377,0.376,0.3759,0.3759,0.3758,0,0.3333,0.3346,0.3414,0.3447,0.3457,0.3501,0.353,0.3568,0.3581,0.3635,0.3648,0.3669,0.3719,0.3733,0.3793,0.3799,0.3873,0.3869,0.3861,0.3861,0.3905,0.3901,0.4042,0.4061,0.3943,0.3945,0.3945,0,0.3394,0.3436,0.3474,0.3501,0.3521,0.3566,0.3594,0.3602,0.3632,0.3674,0.3707,0.3755,0.3795,0.3875,0.3896,0.3942,0.394,0.3986,0.3947,0.3944,0.3941,0.3939,0.3943,0.3994,0.3995,0.3996,0.3997,0,0.3502,0.3505,0.3546,0.3589,0.3622,0.3657,0.369,0.3713,0.3725,0.3759,0.3809,0.3839,0.39,0.3948,0.3994,0.4015,0.4009,0.4009,0.4022,0.4022,0.4015,0.402,0.3882,0.4006,0.4005,0.4005,0.4004,0.4004,0.3578,0.3615,0.3646,0.3692,0.3717,0.3747,0.3784,0.3801,0.3843,0.3892,0.3894,0.3948,0.3982,0.4042,0.4065,0.4108,0.4095,0.4113,0.4118,0.4123,0.4126,0.4007,0.4117,0.4116,0.4116,0.4116,0.4116,0,0.3685,0.3705,0.3746,0.3792,0.3828,0.3816,0.3852,0.3883,0.3931,0.3962,0.4,0.4057,0.4104,0.4128,0.4175,0.4205,0.4203,0.4217,0.4215,0.422,0.4136,0.412,0.4217,0.4217,0.4217,0.4217,0.4217,0.4217,0.3746,0.3808,0.3815,0.3889,0.3909,0.3961,0.3982,0.4011,0.4035,0.4099,0.4138,0.4152,0.4181,0.4229,0.4272,0.4278,0.4295,0.4311,0.4315,0.4236,0.4226,0.4216,0.4202,0.4315,0.4315,0.4396,0.4397,0.4398]},{"header":{"parameterUnit":"m.s-1","parameterCategory":1,"la1":30.2991,"la2":30.254,"lo1":-89.0895,"lo2":-89.0444,"dy":0.0017,"dx":0.0017,"nx":28,"ny":28,"refTime":"2023-08-26T03:00:00:Z","depth":0,"parameterNumber":3,"parameterNumberName":"V-component_of_WINDS"},"data":[0,0,0,0,0,0,0,0,0,0,0,0,0,0,0,0,0,0,0,0,0,0,0,0,0,0,0,0,0,0,0,0,0,0,0,0,0,0,0,0,0,0,0,0,0,0,0,0,0,0,0,0,0,0,0,0,0,0,1.0288,1.0288,0,1.0309,1.031,1.031,1.0288,1.0288,1.0287,1.0286,1.0306,1.0307,1.0309,0,0,0,0,0,0,0,0,0,0,0,0,0,1.0222,1.0223,1.0288,1.0288,1.0288,1.0309,1.031,1.031,1.0289,1.0288,1.0287,1.0286,1.0306,1.0307,1.0309,0,0,0,0,0,0,0,0,0,0,0,0,0,1.0248,1.0223,1.0288,1.028,1.028,1.0309,1.031,1.031,1.0289,1.0288,1.0286,1.0285,1.0305,1.0307,1.0309,1.0347,0,0,1.0315,1.0316,0,0,0,0,0,0,0,0,1.0246,1.025,1.0281,1.0281,1.028,1.0295,1.0294,1.0322,1.0289,1.0285,1.0286,1.0284,1.0303,1.0305,1.0312,1.0348,1.0348,1.0315,1.0316,1.0317,1.0318,0,0,0,0,0,0,0,1.0244,1.0249,1.0296,1.0281,1.0281,1.0274,1.0276,1.0299,1.0301,1.0285,1.0284,1.0287,1.0303,1.031,1.0312,1.0349,1.0315,1.0317,1.0318,1.0319,1.0409,1.0411,0,0,0,0,0,0,1.0244,1.0248,1.0296,1.0297,1.026,1.0276,1.0279,1.0291,1.0301,1.0301,1.0288,1.0286,1.0307,1.031,1.0313,1.0354,1.0317,1.0319,1.032,1.0408,1.041,1.0411,0,0,0,0,0,0,1.0243,1.0248,1.0295,1.0272,1.0277,1.0278,1.0293,1.0293,1.03,1.0303,1.0302,1.0296,1.0307,1.031,1.0337,1.0354,1.032,1.0322,1.0407,1.0409,1.041,1.0437,0,0,0,0,0,0,1.0241,1.0248,1.0264,1.0272,1.0278,1.032,1.0294,1.0294,1.0304,1.0301,1.031,1.031,1.0306,1.0334,1.0339,1.0356,1.0323,1.0405,1.0408,1.041,1.0435,1.044,1.0444,0,0,0,0,0,1.0239,1.0272,1.0265,1.0271,1.0299,1.0322,1.0325,1.032,1.0305,1.032,1.0321,1.031,1.0352,1.0337,1.0343,1.036,1.0404,1.0407,1.041,1.0433,1.0439,1.0444,0,0,0,0,0,0,1.0266,1.0273,1.0266,1.0303,1.0312,1.0318,1.0337,1.0328,1.034,1.0337,1.033,1.0332,1.036,1.0363,1.0347,1.0394,1.0375,1.0379,1.0391,1.0397,1.0401,1.0399,1.0325,0,0,0,0,0,1.0277,1.0296,1.03,1.0332,1.0337,1.0336,1.0346,1.0341,1.035,1.0353,1.0356,1.0364,1.0378,1.0388,1.0402,1.0435,1.0435,1.045,1.0454,1.0458,1.0461,1.0474,1.048,1.042,1.042,1.042,0,0,1.0299,1.0304,1.0317,1.0338,1.0344,1.0362,1.0339,1.036,1.0372,1.0356,1.0381,1.0383,1.039,1.042,1.0433,1.0423,1.0477,1.0462,1.0465,1.0466,1.0477,1.0483,1.0488,1.0422,1.0421,1.0421,0,0,1.0347,1.0355,1.038,1.0386,1.0395,1.0393,1.0399,1.0406,1.0406,1.0431,1.0417,1.0431,1.0457,1.0461,1.0467,1.0511,1.05,1.0516,1.0539,1.0552,1.0557,1.0561,1.0573,1.0578,1.0519,1.0519,1.0519,0,1.0372,1.04,1.0394,1.0414,1.0422,1.0407,1.043,1.0436,1.0449,1.0454,1.0443,1.0472,1.0477,1.0504,1.0514,1.0521,1.0524,1.0515,1.0557,1.0561,1.0565,1.0576,1.0581,1.0521,1.0521,1.052,1.052,0,1.0428,1.0447,1.0466,1.0478,1.0487,1.051,1.0504,1.0515,1.0508,1.0506,1.0529,1.0533,1.0545,1.0551,1.0546,1.0577,1.057,1.0558,1.0539,1.0572,1.0582,1.0587,1.0523,1.0523,1.0522,1.0522,0,0,1.0497,1.0502,1.0508,1.0511,1.0518,1.0531,1.0551,1.0562,1.0569,1.0578,1.0591,1.0611,1.0599,1.0605,1.06,1.0611,1.064,1.0597,1.0597,1.0602,1.067,1.0677,1.0682,1.0633,1.0634,1.0635,1.0668,0,1.0542,1.0576,1.0569,1.0601,1.0615,1.0599,1.0615,1.062,1.0618,1.0628,1.0626,1.0639,1.0624,1.0626,1.0637,1.0635,1.0653,1.0632,1.0643,1.0643,1.064,1.0688,1.0697,1.0728,1.0672,1.0673,1.0674,0,1.06,1.0609,1.0642,1.0642,1.0647,1.0662,1.0669,1.0681,1.0684,1.0681,1.0686,1.0676,1.0692,1.0673,1.0692,1.0678,1.0681,1.068,1.0681,1.0681,1.066,1.0686,1.0739,1.0743,1.0681,1.068,1.068,0,1.0641,1.0662,1.0683,1.0686,1.0688,1.0697,1.0698,1.07,1.0706,1.0712,1.0715,1.0723,1.0726,1.0731,1.0723,1.071,1.0742,1.0723,1.0737,1.0738,1.0744,1.0744,1.0795,1.075,1.075,1.075,1.075,0,1.0691,1.0711,1.0701,1.0714,1.0734,1.0725,1.0745,1.0744,1.0744,1.0755,1.0742,1.0751,1.0741,1.0749,1.0742,1.0756,1.0759,1.0755,1.0753,1.0755,1.0755,1.0757,1.0753,1.0751,1.0751,1.0751,1.0751,0,1.0741,1.0735,1.0756,1.0755,1.0755,1.0769,1.0767,1.0777,1.0773,1.0786,1.0788,1.0782,1.079,1.0782,1.079,1.0785,1.0804,1.08,1.0803,1.0801,1.0814,1.0812,1.0867,1.0872,1.0826,1.0827,1.0827,0,1.0772,1.0787,1.0786,1.0791,1.0793,1.0803,1.0808,1.0798,1.0803,1.0805,1.0814,1.0821,1.0826,1.0839,1.0833,1.0838,1.0832,1.0851,1.0833,1.0833,1.0829,1.0827,1.0827,1.0854,1.0855,1.0855,1.0856,0,1.0826,1.0822,1.083,1.0835,1.0841,1.0845,1.0848,1.0854,1.0843,1.0849,1.0857,1.086,1.0867,1.0872,1.0875,1.0874,1.0862,1.0861,1.0864,1.0866,1.0866,1.0863,1.081,1.086,1.0859,1.0859,1.0859,1.0859,1.0866,1.0876,1.0875,1.0883,1.0884,1.0886,1.0894,1.089,1.0897,1.0901,1.0895,1.0903,1.0901,1.0903,1.0903,1.0908,1.09,1.0905,1.0906,1.0907,1.0907,1.0867,1.0909,1.0908,1.0908,1.0908,1.0908,0,1.0916,1.0914,1.0922,1.0925,1.093,1.0919,1.092,1.0925,1.0933,1.0932,1.0936,1.0943,1.0947,1.0941,1.0944,1.0949,1.0943,1.0949,1.0948,1.0947,1.0916,1.0912,1.0954,1.0954,1.0954,1.0954,1.0954,1.0954,1.0943,1.0959,1.0953,1.0968,1.0965,1.0973,1.0975,1.0975,1.0974,1.0982,1.0986,1.0982,1.0978,1.0979,1.0982,1.0979,1.098,1.0988,1.0983,1.0954,1.095,1.0946,1.0941,1.0989,1.0989,1.1014,1.1014,1.1014]}]]